Location: Caltech
(34.1382°N, 118.1253°W)
Time: 05:36:37
(UTC-07:00)

Cosmos 1484 Rocket - Visible Passes

Search period start: 31 March 2015 00:00
Search period end: 10 April 2015 00:00
Orbit: 511 x 570 km, 97.4° (Epoch: 30 March)

Date Brightness Start Highest point End Pass type
(mag) Time Alt. Az. Time Alt. Az. Time Alt. Az.
31 Mar 3.4 19:31:58 10° SE 19:35:19 32° ENE 19:38:42 10° N visible
31 Mar 5.8 21:08:31 10° WSW 21:10:05 12° W 21:11:27 10° WNW visible
01 Apr 5.7 21:00:34 10° SW 21:02:48 15° W 21:04:55 10° WNW visible
02 Apr 5.5 20:52:50 10° SW 20:55:31 18° W 20:58:07 10° NW visible
03 Apr 5.1 20:45:14 10° SSW 20:48:15 22° W 20:51:12 10° NW visible
04 Apr 4.8 20:37:43 10° SSW 20:40:58 28° W 20:44:12 10° NW visible
05 Apr 4.3 20:30:16 10° SSW 20:33:42 35° W 20:37:09 10° NNW visible
06 Apr 3.9 20:22:51 10° S 20:26:25 44° W 20:30:02 10° NNW visible
07 Apr 3.4 20:15:29 10° S 20:19:09 56° W 20:22:51 10° NNW visible
08 Apr 2.9 20:08:09 10° S 20:11:52 72° W 20:15:38 10° NNW visible
09 Apr 2.7 20:00:53 10° SSE 20:04:36 89° E 20:08:23 10° N visible
